TIME,DELAY(SENSOR),PRES,OXYGEN,RAWTEMP,T(OPTODE),TCPHASE,FLUOR,BETA(BETA700),BETA(BETA412),BETA(BETA440),CDOM,C(CSC),ED(ED412.40),ED(ED444.00),ED(ED489.70),ED(ED554.30),LU(LU411.80),LU(LU443.40),LU(LU489.60),LU(LU554.10),COMP,TILTX,TILTY,CHECK
1376622092,5807,858.6799926757812000,45.6697692871093750,660.9624023437500000,4.5962829589843750,54.1735496520996100,53,99,84,78,78,15315,2147749915,2147422052,2148013165,2147878875,2147635702,2147053266,2148256521,2147201014,3227,3,13,22106
1376625688,5809,933.0200195312500000,47.8793601989746100,669.0307006835938000,4.3302121162414550,53.9556312561035160,53,99,84,79,79,15311,2147756406,2147423085,2148011620,2147873499,2147638720,2147054482,2148256338,2147199177,3244,4,13,12063
1376629288,5809,941.5200195312500000,48.5625610351562500,669.7733764648438000,4.3056812286376950,53.8662910461425800,52,105,85,78,79,15317,2147757120,2147424073,2148012315,2147873956,2147641307,2147059885,2148260754,2147200045,80,4,13,48050
1376632888,5809,957.6400146484375000,49.7672309875488300,673.5349731445312000,4.1813511848449710,53.7489509582519500,52,99,86,78,79,15316,2147757979,2147421988,2148010715,2147871826,2147639259,2147047853,2148257051,2147194166,3050,4,13,4783
1376636488,5810,966.5300292968750000,50.3620300292968750,674.5156860351562000,4.1489109992980960,53.6787910461425800,53,98,87,78,80,15317,2147758857,2147424996,2148012534,2147876096,2147640082,2147052452,2148262317,2147197796,340,4,13,41541
1376640088,5810,978.8699951171875000,50.5186004638671900,674.9832763671875000,4.1334381103515625,53.6604194641113300,53,99,84,79,79,15316,2147756498,2147422747,2148013641,2147872795,2147643382,2147050294,2148256978,2147196544,3383,4,13,15760
1376643688,5812,981.7899780273438000,49.9933090209960940,673.9124145507812000,4.1688690185546875,53.7181282043457000,52,97,85,78,79,15312,2147755501,2147424338,2148013229,2147875492,2147638546,2147057106,2148260123,2147196068,3490,4,13,8424
1376647288,5812,985.5800170898438000,49.9523315429687500,674.0753173828125000,4.1634812355041500,53.7266502380371100,53,98,86,78,78,15315,2147758235,2147418916,2148011894,2147876196,2147643035,2147057188,2148257298,2147198582,36,4,13,21700
1376650888,5809,987.9600219726562000,49.4127998352050800,673.2769165039062000,4.1898899078369140,53.7901191711425800,52,100,84,78,79,15316,2147757028,2147424886,2148010880,2147873289,2147638409,2147060342,2148261632,2147200566,3463,4,13,3408
1376654488,5809,989.2500000000000000,49.3150405883789060,672.6179809570312000,4.2116742134094240,53.8005218505859400,52,100,83,79,79,15311,2147755556,2147423808,2148012022,2147873590,2147641106,2147055762,2148260333,2147201929,1799,4,13,54804
1376658088,5809,990.4199829101562000,49.1269989013671900,672.9586791992188000,4.2004089355468750,53.8308296203613300,52,99,84,79,79,15317,2147757440,2147424548,2148013650,2147874660,2147641270,2147054372,2148260992,2147199478,69,4,13,14630
1376661688,5804,985.3300170898438000,49.3124313354492200,673.5703125000000000,4.1801872253417970,53.8106193542480500,52,99,84,79,79,15314,2147754514,2147424064,2148015122,2147877312,2147642102,2147052534,2148260059,2147197906,344,4,13,50403
1376665288,5810,989.5200195312500000,49.4467086791992200,673.8806152343750000,4.1699199676513670,53.7992515563964840,53,98,86,78,80,15314,2147752667,2147422326,2148013540,2147877348,2147642779,2147058084,2148260306,2147198720,162,4,13,26424
1376668888,5811,983.2399902343750000,49.5656890869140600,674.6213989257812000,4.1454138755798340,53.7906990051269500,52,99,86,78,80,15314,2147756388,2147421531,2148010825,2147869659,2147641874,2147055268,2148265124,2147196955,2888,4,13,12752
1376672488,5810,981.7500000000000000,49.5766906738281250,674.2468261718750000,4.1578078269958500,53.7834815979003900,52,98,86,77,80,15315,2147757595,2147425133,2148013449,2147873581,2147642468,2147059337,2148259026,2147198336,3303,4,13,45107
1376676088,5807,980.2800292968750000,49.9490394592285160,675.3040161132812000,4.1228260993957520,53.7465095520019500,52,103,84,80,77,15302,2147759689,2147423533,2148011547,2147875913,2147643392,2147053979,2148262985,2147194230,615,4,13,16571
1376679688,5811,989.6699829101562000,49.9985084533691400,675.5964965820312000,4.1131458282470700,53.7397689819335940,53,99,84,79,80,15312,2147757458,2147424182,2148014491,2147874194,2147642605,2147053586,2148261211,2147194633,23,4,13,7570
1376683288,5807,988.7999877929688000,49.8610305786132800,675.5676879882812000,4.1140999794006350,53.7620201110839840,53,98,86,79,78,15310,2147758253,2147425307,2148012196,2147873106,2147640822,2147054061,2148264621,2147192722,3592,4,13,38159
1376686888,5806,991.8400268554688000,49.6296691894531250,674.8632812500000000,4.1374092102050780,53.7839889526367200,53,96,83,78,79,15313,2147756443,2147421897,2148013357,2147875529,2147643382,2147057682,2148263104,2147193718,607,4,13,18321
1376690488,5807,982.7999877929688000,49.4419517517089840,674.6364135742188000,4.1449179649353030,53.8021888732910160,52,100,85,76,80,15314,2147756580,2147422738,2148010075,2147874770,2147641225,2147053933,2148266944,2147198052,194,4,13,13626
1376694088,5809,980.0200195312500000,49.9888916015625000,676.1683959960938000,4.0942149162292480,53.7468414306640600,53,98,85,79,79,15308,2147758381,2147424265,2148011885,2147872246,2147642102,2147052269,2148260370,2147195145,418,4,13,55157
1376697688,5810,991.5300292968750000,50.6352081298828100,676.1425170898438000,4.0950760841369630,53.6605606079101560,52,98,83,79,79,15312,2147757074,2147427117,2148009828,2147873636,2147643062,2147054290,2148258377,2147197165,25,4,13,63502
1376701288,5808,997.9299926757812000,50.1870918273925800,675.0266113281250000,4.1320061683654785,53.7106704711914060,53,98,86,79,81,15310,2147758217,2147421988,2148011803,2147871387,2147641636,2147052141,2148258980,2147197906,2986,4,13,10185
1376704888,5812,994.0700073242188000,49.5705490112304700,674.1469116210938000,4.1611142158508300,53.7841911315918000,53,98,90,78,79,15307,2147759981,2147425517,2148009993,2147873837,2147636489,2147057801,2148259437,2147199899,4,4,13,10538
1376708488,5808,989.0000000000000000,49.0587310791015600,674.1522216796875000,4.1609377861022950,53.8561210632324200,52,98,87,77,80,15308,2147759652,2147423305,2148011392,2147871881,2147645513,2147053677,2148260873,2147200859,258,4,13,41004
1376712088,5811,999.1799926757812000,50.0731315612793000,675.2020263671875000,4.1262001991271970,53.7234191894531250,53,99,87,78,79,15265,2147761051,2147424484,2148013202,2147875766,2147642240,2147051776,2148263561,2147196708,2898,4,13,61157
1376715688,5807,993.4799804687500000,49.2446708679199200,674.9138183593750000,4.1357398033142090,53.8367881774902340,53,98,88,79,79,15263,2147760484,2147423478,2148011977,2147874450,2147640932,2147053092,2148258852,2147196717,3346,4,13,6196
1376719288,5810,983.9699707031250000,50.0347290039062500,676.1549072265625000,4.0946640968322750,53.7458915710449200,52,97,87,79,79,15245,2147759323,2147423890,2148013686,2147870226,2147643602,2147053933,2148259154,2147198500,6,4,13,40711
1376722888,5810,990.9299926757812000,50.7010498046875000,676.3151245117188000,4.0893588066101070,53.6507301330566400,52,99,87,78,79,15261,2147760073,2147424118,2148013348,2147874240,2147639533,2147057645,2148258130,2147198144,3456,4,13,13170
1376726488,5807,995.0499877929688000,50.0769996643066400,676.0637207031250000,4.0976829528808590,53.7342796325683600,52,97,87,77,80,15261,2147759881,2147423113,2148012452,2147876416,2147642980,2147052653,2148260269,2147197110,3492,4,13,56792
1376730088,5809,996.0800170898438000,49.9156188964843750,675.1644897460938000,4.1274428367614750,53.7458190917968750,52,99,85,79,80,15261,2147757705,2147421705,2148011017,2147876352,2147640612,2147050102,2148264804,2147199341,3272,3,13,37564
1376733688,5810,992.8699951171875000,49.7214393615722660,675.2020263671875000,4.1262001991271970,53.7777290344238300,53,98,87,78,79,15261,2147757522,2147422034,2148010139,2147873709,2147642962,2147058011,2148261796,2147193718,3467,4,13,43198
1376737288,5808,991.2000122070312000,49.7834510803222660,676.4537963867188000,4.0847678184509280,53.7809982299804700,52,97,83,78,79,15257,2147756498,2147426752,2148012653,2147876653,2147641371,2147049910,2148258578,2147202541,295,4,13,6900
1376740888,5809,997.4899902343750000,49.6703796386718750,674.3833007812500000,4.1532921791076660,53.7708206176757800,52,98,88,78,79,15259,2147760009,2147423936,2148007314,2147874678,2147641179,2147053778,2148263561,2147201060,3438,4,13,16114
1376744488,5810,1001.8800048828125000,49.2639694213867200,674.1693115234375000,4.1603717803955080,53.8274497985839840,53,96,87,78,78,15259,2147755666,2147422564,2148008722,2147873033,2147642724,2147056466,2148257645,2147193718,44,4,13,64967
1376748088,5805,995.4500122070312000,49.3906593322753900,674.7202148437500000,4.1421451568603520,53.8107490539550800,52,98,85,78,78,15260,2147755465,2147423369,2148013769,2147873773,2147640064,2147051986,2148265938,2147197056,124,4,13,15076
1376751688,5810,997.7800292968750000,49.0512809753418000,673.8021850585938000,4.1725158691406250,53.8482093811035160,53,99,86,78,79,15259,2147755209,2147423835,2148012406,2147875035,2147640438,2147050477,2148260672,2147196909,3480,3,13,27230
1376755288,5810,996.5300292968750000,48.6891288757324200,674.0051269531250000,4.1658020019531250,53.9023399353027340,52,100,84,79,78,15259,2147755867,2147425837,2148012425,2147874358,2147641005,2147052160,2148259776,2147200283,309,4,13,40710
1376758888,5810,997.0599975585938000,49.7466697692871100,675.2442016601562000,4.1248049736022950,53.7681007385253900,53,100,86,78,79,15257,2147755940,2147426212,2148011410,2147874038,2147642514,2147051483,2148263625,2147197421,66,4,13,15768
1376762488,5808,995.1599731445312000,49.3853302001953100,674.6480712890625000,4.1445288658142090,53.8102302551269500,53,98,87,78,79,15260,2147757961,2147422253,2148012150,2147874934,2147643446,2147056777,2148262262,2147196708,411,4,13,34287
1376765755,5812,992.1900024414062000,49.5639190673828100,675.6041259765625000,4.1128959655761720,53.7985610961914060,53,97,85,78,78,15304,2147756955,2147426532,2148009088,2147875428,2147642340,2147053933,2148263277,2147196278,3332,4,13,13237
